Location: L�Ave Maria
(50.7161°N, 1.5911°E)
Time: 12:45:33
(UTC+00:00)

Meteor 2-12 Rocket - Pass Details

Date: 10 July 2020
Orbit: 936 x 957 km, 82.5° (Epoch: 07 August)

Event Time Altitude Azimuth Distance (km) Brightness Sun altitude
Exits shadow 23:15:48 22° 195° (SSW) 1,942 5.5 -16.6°
Maximum altitude 23:19:56 81° 280° (W) 972 4.5 -16.7°
Drops below altitude 10° 23:26:08 10° 9° (N) 2,698 8.0 -16.8°
Sets 23:28:39 0° 11° (N) 3,649 8.9 -16.9°
